Time,TemperatureF,DewpointF,PressureIn,WindDirection,WindDirectionDegrees,WindSpeedMPH,WindSpeedGustMPH,Humidity,HourlyPrecipIn,Conditions,Clouds,dailyrainin,SoftwareType,DateUTC
2013-04-17 00:00:00,42.9,33.4,30.38,ENE,67,0.0,0.0,69,0.00,,---,0.00,VWS V14.01,2013-04-17 07:00:00,
2013-04-17 00:05:00,42.8,33.3,30.38,ENE,67,0.0,0.0,69,0.00,,---,0.00,VWS V14.01,2013-04-17 07:05:00,
2013-04-17 00:10:00,42.8,33.7,30.38,ENE,67,0.0,0.0,70,0.00,,---,0.00,VWS V14.01,2013-04-17 07:10:00,
2013-04-17 00:15:00,42.5,33.4,30.38,ENE,67,0.0,0.0,70,0.00,,---,0.00,VWS V14.01,2013-04-17 07:15:00,
2013-04-17 00:20:00,42.3,33.6,30.38,ENE,67,0.0,0.0,71,0.00,,---,0.00,VWS V14.01,2013-04-17 07:20:00,
2013-04-17 00:25:00,42.2,33.5,30.38,ENE,67,0.0,0.0,71,0.00,,---,0.00,VWS V14.01,2013-04-17 07:25:00,
2013-04-17 00:30:00,42.2,33.8,30.38,ENE,67,0.0,0.0,72,0.00,,---,0.00,VWS V14.01,2013-04-17 07:30:00,
2013-04-17 00:35:00,42.1,33.7,30.39,ENE,67,0.0,0.0,72,0.00,,---,0.00,VWS V14.01,2013-04-17 07:35:00,
2013-04-17 00:40:00,41.9,33.9,30.39,ENE,67,0.0,0.0,73,0.00,,---,0.00,VWS V14.01,2013-04-17 07:40:00,
2013-04-17 00:45:00,41.8,33.8,30.39,ENE,67,0.0,0.0,73,0.00,,---,0.00,VWS V14.01,2013-04-17 07:45:00,
2013-04-17 00:50:00,41.8,33.8,30.39,ENE,67,0.0,0.0,73,0.00,,---,0.00,VWS V14.01,2013-04-17 07:50:00,
2013-04-17 00:55:00,41.6,33.6,30.39,ENE,67,0.0,0.0,73,0.00,,---,0.00,VWS V14.01,2013-04-17 07:55:00,
2013-04-17 01:01:00,41.6,33.9,30.39,ENE,67,0.0,0.0,74,0.00,,---,0.00,VWS V14.01,2013-04-17 08:01:00,
2013-04-17 01:06:00,41.5,33.8,30.39,ENE,67,0.0,0.0,74,0.00,,---,0.00,VWS V14.01,2013-04-17 08:06:00,
2013-04-17 01:11:00,41.3,34.0,30.39,ENE,68,0.0,0.0,75,0.00,,---,0.00,VWS V14.01,2013-04-17 08:11:00,
2013-04-17 01:16:00,41.2,33.9,30.39,ENE,67,0.0,0.0,75,0.00,,---,0.00,VWS V14.01,2013-04-17 08:16:00,
2013-04-17 01:21:00,41.1,33.8,30.39,ENE,67,0.0,0.0,75,0.00,,---,0.00,VWS V14.01,2013-04-17 08:21:00,
2013-04-17 01:26:00,41.1,34.1,30.39,ENE,67,0.0,0.0,76,0.00,,---,0.00,VWS V14.01,2013-04-17 08:26:00,
2013-04-17 01:31:00,40.9,33.9,30.39,ENE,67,0.0,0.0,76,0.00,,---,0.00,VWS V14.01,2013-04-17 08:31:00,
2013-04-17 01:36:00,40.8,34.2,30.39,ENE,67,0.0,0.0,77,0.00,,---,0.00,VWS V14.01,2013-04-17 08:36:00,
2013-04-17 01:41:00,40.8,34.2,30.40,ENE,67,0.0,0.0,77,0.00,,---,0.00,VWS V14.01,2013-04-17 08:41:00,
2013-04-17 01:46:00,40.8,34.2,30.40,ENE,67,0.0,0.0,77,0.00,,---,0.00,VWS V14.01,2013-04-17 08:46:00,
2013-04-17 01:51:00,40.8,34.2,30.39,ENE,67,0.0,0.0,77,0.00,,---,0.00,VWS V14.01,2013-04-17 08:51:00,
2013-04-17 01:56:00,40.6,34.3,30.39,ENE,67,0.0,0.0,78,0.00,,---,0.00,VWS V14.01,2013-04-17 08:56:00,
2013-04-17 02:01:00,40.6,34.3,30.39,ENE,67,0.0,0.0,78,0.00,,---,0.00,VWS V14.01,2013-04-17 09:01:00,
2013-04-17 02:06:00,40.5,34.2,30.40,ENE,67,0.0,0.0,78,0.00,,---,0.00,VWS V14.01,2013-04-17 09:06:00,
2013-04-17 02:11:00,40.3,34.0,30.40,ENE,67,0.0,0.0,78,0.00,,---,0.00,VWS V14.01,2013-04-17 09:11:00,
2013-04-17 02:17:00,40.3,34.0,30.39,ENE,67,0.0,0.0,78,0.00,,---,0.00,VWS V14.01,2013-04-17 09:17:00,
2013-04-17 02:22:00,40.2,34.2,30.40,ENE,67,0.0,0.0,79,0.00,,---,0.00,VWS V14.01,2013-04-17 09:22:00,
2013-04-17 02:27:00,40.1,34.1,30.40,ENE,67,0.0,0.0,79,0.00,,---,0.00,VWS V14.01,2013-04-17 09:27:00,
2013-04-17 02:32:00,40.1,34.1,30.40,ENE,67,0.0,0.0,79,0.00,,---,0.00,VWS V14.01,2013-04-17 09:32:00,
2013-04-17 02:37:00,39.9,33.9,30.40,ENE,67,0.0,0.0,79,0.00,,---,0.00,VWS V14.01,2013-04-17 09:37:00,
2013-04-17 02:42:00,39.8,33.8,30.40,ENE,67,0.0,0.0,79,0.00,,---,0.00,VWS V14.01,2013-04-17 09:42:00,
2013-04-17 02:47:00,39.8,34.1,30.40,ENE,67,0.0,0.0,80,0.00,,---,0.00,VWS V14.01,2013-04-17 09:47:00,
2013-04-17 02:52:00,39.6,34.0,30.40,ENE,67,0.0,0.0,80,0.00,,---,0.00,VWS V14.01,2013-04-17 09:52:00,
2013-04-17 02:57:00,39.6,34.0,30.39,ENE,67,0.0,0.0,80,0.00,,---,0.00,VWS V14.01,2013-04-17 09:57:00,
2013-04-17 03:02:00,39.5,33.8,30.40,ENE,68,0.0,0.0,80,0.00,,---,0.00,VWS V14.01,2013-04-17 10:02:00,
2013-04-17 03:07:00,39.5,33.8,30.40,ENE,67,0.0,0.0,80,0.00,,---,0.00,VWS V14.01,2013-04-17 10:07:00,
2013-04-17 03:12:00,39.3,33.7,30.40,ENE,67,0.0,0.0,80,0.00,,---,0.00,VWS V14.01,2013-04-17 10:12:00,
2013-04-17 03:17:00,39.3,34.0,30.40,ENE,67,0.0,0.0,81,0.00,,---,0.00,VWS V14.01,2013-04-17 10:17:00,
2013-04-17 03:22:00,39.3,34.0,30.40,ENE,67,0.0,0.0,81,0.00,,---,0.00,VWS V14.01,2013-04-17 10:22:00,
2013-04-17 03:27:00,39.3,34.0,30.40,ENE,67,0.0,0.0,81,0.00,,---,0.00,VWS V14.01,2013-04-17 10:27:00,
2013-04-17 03:32:00,39.3,34.0,30.40,ENE,67,0.0,0.0,81,0.00,,---,0.00,VWS V14.01,2013-04-17 10:32:00,
2013-04-17 03:37:00,39.6,34.3,30.40,ENE,67,0.0,0.0,81,0.00,,---,0.00,VWS V14.01,2013-04-17 10:37:00,
2013-04-17 03:43:00,39.6,34.3,30.40,ENE,67,0.0,0.0,81,0.00,,---,0.00,VWS V14.01,2013-04-17 10:43:00,
2013-04-17 03:48:00,39.9,34.9,30.40,ENE,67,0.0,0.0,82,0.00,,---,0.00,VWS V14.01,2013-04-17 10:48:00,
2013-04-17 03:53:00,40.1,35.1,30.40,ENE,67,0.0,0.0,82,0.00,,---,0.00,VWS V14.01,2013-04-17 10:53:00,
2013-04-17 03:58:00,40.1,35.1,30.40,ENE,67,0.0,0.0,82,0.00,,---,0.00,VWS V14.01,2013-04-17 10:58:00,
2013-04-17 04:03:00,40.2,35.2,30.40,ENE,67,0.0,0.0,82,0.00,,---,0.00,VWS V14.01,2013-04-17 11:03:00,
2013-04-17 04:08:00,40.2,35.2,30.40,ENE,67,0.0,0.0,82,0.00,,---,0.00,VWS V14.01,2013-04-17 11:08:00,
2013-04-17 04:13:00,40.2,35.2,30.40,ENE,67,0.0,0.0,82,0.00,,---,0.00,VWS V14.01,2013-04-17 11:13:00,
2013-04-17 04:18:00,40.2,35.2,30.40,ENE,67,0.0,0.0,82,0.00,,---,0.00,VWS V14.01,2013-04-17 11:18:00,
2013-04-17 04:23:00,40.1,35.1,30.40,ENE,67,0.0,0.0,82,0.00,,---,0.00,VWS V14.01,2013-04-17 11:23:00,
2013-04-17 04:28:00,40.1,35.1,30.40,ENE,67,0.0,0.0,82,0.00,,---,0.00,VWS V14.01,2013-04-17 11:28:00,
2013-04-17 04:33:00,39.9,34.9,30.40,ENE,67,0.0,0.0,82,0.00,,---,0.00,VWS V14.01,2013-04-17 11:33:00,
2013-04-17 04:38:00,39.9,34.9,30.40,ENE,67,0.0,0.0,82,0.00,,---,0.00,VWS V14.01,2013-04-17 11:38:00,
2013-04-17 04:44:00,39.9,34.9,30.40,ENE,67,0.0,0.0,82,0.00,,---,0.00,VWS V14.01,2013-04-17 11:44:00,
2013-04-17 04:49:00,39.9,34.9,30.40,ENE,67,0.0,0.0,82,0.00,,---,0.00,VWS V14.01,2013-04-17 11:49:00,
2013-04-17 04:54:00,39.9,34.9,30.40,ENE,67,0.0,0.0,82,0.00,,---,0.00,VWS V14.01,2013-04-17 11:54:00,
2013-04-17 04:59:00,39.8,34.8,30.41,ENE,67,0.0,0.0,82,0.00,,---,0.00,VWS V14.01,2013-04-17 11:59:00,
2013-04-17 05:04:00,39.9,34.9,30.40,ENE,67,0.0,0.0,82,0.00,,---,0.00,VWS V14.01,2013-04-17 12:04:00,
2013-04-17 05:09:00,39.9,34.9,30.40,ENE,67,0.0,0.0,82,0.00,,---,0.00,VWS V14.01,2013-04-17 12:09:00,
2013-04-17 05:14:00,39.9,34.9,30.40,ENE,67,0.0,0.0,82,0.00,,---,0.00,VWS V14.01,2013-04-17 12:14:00,
2013-04-17 05:19:00,39.9,34.9,30.40,ENE,67,0.0,0.0,82,0.00,,---,0.00,VWS V14.01,2013-04-17 12:19:00,
2013-04-17 05:24:00,39.9,34.9,30.41,ENE,67,0.0,0.0,82,0.00,,---,0.00,VWS V14.01,2013-04-17 12:24:00,
2013-04-17 05:29:00,39.8,34.8,30.41,ENE,67,0.0,0.0,82,0.00,,---,0.00,VWS V14.01,2013-04-17 12:29:00,
2013-04-17 05:34:00,39.8,34.8,30.41,ENE,67,0.0,0.0,82,0.00,,---,0.00,VWS V14.01,2013-04-17 12:34:00,
2013-04-17 05:39:00,39.8,34.8,30.41,ENE,67,0.0,0.0,82,0.00,,---,0.00,VWS V14.01,2013-04-17 12:39:00,
2013-04-17 05:44:00,39.6,34.6,30.41,ENE,67,0.0,0.0,82,0.00,,---,0.00,VWS V14.01,2013-04-17 12:44:00,
2013-04-17 05:49:00,39.6,34.6,30.41,ENE,67,0.0,0.0,82,0.00,,---,0.00,VWS V14.01,2013-04-17 12:49:00,
2013-04-17 05:54:00,39.5,34.5,30.41,ENE,67,0.0,0.0,82,0.00,,---,0.00,VWS V14.01,2013-04-17 12:54:00,
2013-04-17 05:59:00,39.5,34.5,30.41,ENE,67,0.0,0.0,82,0.00,,---,0.00,VWS V14.01,2013-04-17 12:59:00,
2013-04-17 06:04:00,39.3,34.3,30.42,ENE,67,0.0,0.0,82,0.00,,---,0.00,VWS V14.01,2013-04-17 13:04:00,
2013-04-17 06:10:00,39.2,34.2,30.42,ENE,67,0.0,0.0,82,0.00,,---,0.00,VWS V14.01,2013-04-17 13:10:00,
2013-04-17 06:15:00,39.1,34.1,30.42,ENE,67,0.0,0.0,82,0.00,,---,0.00,VWS V14.01,2013-04-17 13:15:00,
2013-04-17 06:20:00,39.1,34.1,30.42,ENE,67,0.0,0.0,82,0.00,,---,0.00,VWS V14.01,2013-04-17 13:20:00,
2013-04-17 06:25:00,39.1,34.1,30.42,ENE,67,0.0,0.0,82,0.00,,---,0.00,VWS V14.01,2013-04-17 13:25:00,
2013-04-17 06:30:00,38.9,33.9,30.42,ENE,67,0.0,0.0,82,0.00,,---,0.00,VWS V14.01,2013-04-17 13:30:00,
2013-04-17 06:35:00,38.9,33.9,30.42,ENE,67,0.0,0.0,82,0.00,,---,0.00,VWS V14.01,2013-04-17 13:35:00,
2013-04-17 06:40:00,38.9,33.9,30.42,ENE,67,0.0,0.0,82,0.00,,---,0.00,VWS V14.01,2013-04-17 13:40:00,
2013-04-17 06:45:00,39.1,34.1,30.42,ENE,67,0.0,0.0,82,0.00,,---,0.00,VWS V14.01,2013-04-17 13:45:00,
2013-04-17 06:50:00,39.2,34.2,30.42,SE,146,0.0,0.0,82,0.00,,---,0.00,VWS V14.01,2013-04-17 13:50:00,
2013-04-17 06:55:00,39.2,34.2,30.43,SE,146,0.0,0.0,82,0.00,,---,0.00,VWS V14.01,2013-04-17 13:55:00,
2013-04-17 07:00:00,39.3,34.3,30.42,SE,146,0.0,0.0,82,0.00,,---,0.00,VWS V14.01,2013-04-17 14:00:00,
2013-04-17 07:05:00,39.5,34.5,30.43,SE,136,0.0,0.0,82,0.00,,---,0.00,VWS V14.01,2013-04-17 14:05:00,